{"data":{"norad_id":38977,"intl_designator":"2012-061A","name":"LUCH 5B (SDCM/PRN 125)","alt_names":[],"object_type":"PAYLOAD","status":"ACTIVE","operator":null,"country":"CIS","launch_date":"2012-11-02","launch_site_code":"TYMSC","launch_vehicle":null,"mission":null,"orbit_class":"UNKNOWN","rcs_meters":251.1897,"size_class":null,"mass_kg":null,"dimensions":null,"purposes":["comms","nav"],"wikipedia_slug":null,"has_3d_model":false,"image_url":null,"decayed_at":null,"tle_current":{"epoch":"2026-05-25T00:14:38.122944Z","epoch_age_seconds":68192,"freshness":"FRESH","line1":"1 38977U 12061A   26145.01016346 -.00000142  00000+0  00000+0 0  9999","line2":"2 38977  10.4363  50.1131 0001291 157.1399  22.6486  1.00270191 49374","mean_motion":1.00270191,"eccentricity":0.0001291,"inclination_deg":10.4363,"raan_deg":50.1131,"arg_perigee_deg":157.1399,"mean_anomaly_deg":22.6486,"bstar":0,"rev_number":4937,"period_min":1436.1197337302,"perigee_km":35781.598298588,"apogee_km":35792.48534776,"semimajor_km":42165.178823174,"source":"CELESTRAK","updated_at":"2026-05-25T13:38:24.339710Z"}}}